Location: Igri�s
(42.2144°N, 0.4320°W)
Time: 14:22:35
(UTC+00:00)

Cosmos 2082 Rocket - Pass Details

Date: 13 August 2020
Orbit: 835 x 852 km, 71.0° (Epoch: 24 September)

Event Time Altitude Azimuth Distance (km) Brightness Sun altitude
Rises 20:30:53 0° 214° (SW) 3,400 5.3 -14.9°
Reaches altitude 10° 20:33:22 10° 218° (SW) 2,466 4.7 -15.2°
Maximum altitude 20:38:57 58° 298° (WNW) 981 2.9 -16.1°
Drops below altitude 10° 20:44:32 10° 17° (NNE) 2,470 4.9 -16.9°
Sets 20:47:02 0° 22° (NNE) 3,406 5.6 -17.2°
